Hourly Weather Otradnyy

Today, 23 July, Friday

Time Temperature Precipitation Wind Pressure Humidity
00:00 +23°C° 0 mm 5 mps 733 mmHg 75%
01:00 +22°C° 0 mm 5 mps 733 mmHg 76%
02:00 +22°C° 0 mm 5 mps 733 mmHg 77%
03:00 +21°C° 0 mm 4 mps 732 mmHg 79%
04:00 +21°C° 0 mm 4 mps 733 mmHg 79%
05:00 +21°C° 0 mm 4 mps 733 mmHg 79%
06:00 +21°C° 0 mm 4 mps 733 mmHg 80%
07:00 +21°C° 0 mm 4 mps 734 mmHg 79%
08:00 +21°C° 0 mm 4 mps 734 mmHg 79%
09:00 +21°C° 0 mm 5 mps 734 mmHg 78%
10:00 +21°C° 0 mm 4 mps 734 mmHg 77%
11:00 +22°C° 0 mm 4 mps 734 mmHg 75%
12:00 +22°C° 0 mm 3 mps 734 mmHg 74%
13:00 +23°C° 0 mm 4 mps 734 mmHg 71%
14:00 +23°C° 0 mm 4 mps 734 mmHg 68%
15:00 +25°C° 0 mm 4 mps 734 mmHg 65%
16:00 +25°C° 0 mm 4 mps 734 mmHg 62%
17:00 +26°C° 0 mm 4 mps 735 mmHg 60%
18:00 +26°C° 0 mm 4 mps 735 mmHg 58%
19:00 +25°C° 0 mm 3 mps 735 mmHg 67%
20:00 +23°C° 0 mm 2 mps 736 mmHg 77%
21:00 +20°C° 0 mm 2 mps 736 mmHg 86%
22:00 +20°C° 0.1 mm 2 mps 736 mmHg 86%
23:00 +20°C° 0.1 mm 2 mps 736 mmHg 87%

Tomorrow, 24 July, Saturday

Time Temperature Precipitation Wind Pressure Humidity
00:00 +20°C° 0.1 mm 2 mps 737 mmHg 87%
01:00 +20°C° 0 mm 2 mps 737 mmHg 87%
02:00 +20°C° 0 mm 2 mps 737 mmHg 87%
03:00 +20°C° 0 mm 2 mps 737 mmHg 87%
04:00 +20°C° 0 mm 2 mps 737 mmHg 85%
05:00 +20°C° 0 mm 2 mps 738 mmHg 83%
06:00 +20°C° 0 mm 2 mps 738 mmHg 81%
07:00 +23°C° 0 mm 2 mps 738 mmHg 70%
08:00 +25°C° 0 mm 2 mps 738 mmHg 59%
09:00 +27°C° 0 mm 2 mps 738 mmHg 48%
10:00 +28°C° 0 mm 3 mps 738 mmHg 44%
11:00 +29°C° 0 mm 3 mps 738 mmHg 41%
12:00 +30°C° 0 mm 3 mps 738 mmHg 37%
13:00 +30°C° 0 mm 3 mps 738 mmHg 37%
14:00 +30°C° 0 mm 2 mps 738 mmHg 36%
15:00 +30°C° 0 mm 2 mps 738 mmHg 36%
16:00 +30°C° 0 mm 2 mps 738 mmHg 35%
17:00 +30°C° 0 mm 2 mps 739 mmHg 35%
18:00 +30°C° 0 mm 2 mps 739 mmHg 35%
19:00 +29°C° 0 mm 2 mps 739 mmHg 36%
20:00 +28°C° 0 mm 3 mps 739 mmHg 37%
21:00 +27°C° 0 mm 3 mps 740 mmHg 38%
22:00 +27°C° 0 mm 3 mps 740 mmHg 39%
23:00 +26°C° 0 mm 3 mps 740 mmHg 39%

Day after tomorrow, 25 July, Sunday

Time Temperature Precipitation Wind Pressure Humidity
00:00 +26°C° 0 mm 3 mps 740 mmHg 40%
01:00 +25°C° 0 mm 3 mps 740 mmHg 41%
02:00 +25°C° 0 mm 2 mps 740 mmHg 42%
03:00 +25°C° 0 mm 2 mps 740 mmHg 43%
04:00 +25°C° 0 mm 3 mps 740 mmHg 46%
05:00 +25°C° 0 mm 3 mps 740 mmHg 50%
06:00 +25°C° 0 mm 3 mps 741 mmHg 54%
07:00 +26°C° 0.1 mm 3 mps 741 mmHg 55%
08:00 +26°C° 0.1 mm 4 mps 741 mmHg 57%
09:00 +27°C° 0.1 mm 4 mps 741 mmHg 58%
10:00 +27°C° 0 mm 4 mps 742 mmHg 55%
11:00 +28°C° 0 mm 4 mps 742 mmHg 51%
12:00 +29°C° 0 mm 4 mps 742 mmHg 47%
13:00 +30°C° 0 mm 4 mps 742 mmHg 43%
14:00 +32°C° 0 mm 4 mps 742 mmHg 38%
15:00 +33°C° 0 mm 5 mps 742 mmHg 34%
16:00 +32°C° 0 mm 4 mps 742 mmHg 35%
17:00 +32°C° 0 mm 4 mps 742 mmHg 37%
18:00 +30°C° 0 mm 3 mps 742 mmHg 39%
19:00 +29°C° 0 mm 3 mps 742 mmHg 40%
20:00 +28°C° 0 mm 3 mps 742 mmHg 40%
21:00 +28°C° 0 mm 3 mps 742 mmHg 41%
22:00 +27°C° 0 mm 3 mps 742 mmHg 41%
23:00 +27°C° 0 mm 3 mps 742 mmHg 41%

26 July, Monday

Time Temperature Precipitation Wind Pressure Humidity
00:00 +27°C° 0 mm 3 mps 742 mmHg 41%
01:00 +26°C° 0 mm 3 mps 742 mmHg 41%
02:00 +25°C° 0 mm 3 mps 742 mmHg 42%
03:00 +22°C° 0 mm 3 mps 743 mmHg 43%
04:00 +24°C° 0 mm 3 mps 743 mmHg 44%
05:00 +24°C° 0 mm 3 mps 743 mmHg 44%
06:00 +24°C° 0 mm 3 mps 743 mmHg 45%
07:00 +26°C° 0 mm 4 mps 743 mmHg 39%
08:00 +28°C° 0 mm 6 mps 743 mmHg 34%
09:00 +30°C° 0 mm 7 mps 743 mmHg 28%
10:00 +33°C° 0 mm 7 mps 743 mmHg 26%
11:00 +34°C° 0 mm 7 mps 743 mmHg 24%
12:00 +35°C° 0 mm 7 mps 742 mmHg 21%
13:00 +36°C° 0 mm 7 mps 742 mmHg 24%
14:00 +36°C° 0 mm 7 mps 742 mmHg 26%
15:00 +36°C° 0 mm 7 mps 741 mmHg 28%
16:00 +35°C° 0 mm 7 mps 742 mmHg 31%
17:00 +33°C° 0 mm 7 mps 742 mmHg 33%
18:00 +32°C° 0 mm 7 mps 742 mmHg 36%
19:00 +30°C° 0 mm 6 mps 742 mmHg 38%
20:00 +29°C° 0 mm 5 mps 742 mmHg 40%
21:00 +28°C° 0 mm 3 mps 743 mmHg 41%
22:00 +28°C° 0 mm 3 mps 743 mmHg 43%
23:00 +27°C° 0 mm 3 mps 743 mmHg 44%

27 July, Tuesday

Time Temperature Precipitation Wind Pressure Humidity
00:00 +27°C° 0 mm 3 mps 743 mmHg 45%
01:00 +26°C° 0.1 mm 3 mps 742 mmHg 46%
02:00 +26°C° 0.1 mm 3 mps 742 mmHg 47%
03:00 +26°C° 0.1 mm 3 mps 742 mmHg 48%
04:00 +25°C° 0 mm 3 mps 742 mmHg 48%
05:00 +25°C° 0 mm 2 mps 743 mmHg 49%
06:00 +25°C° 0 mm 2 mps 743 mmHg 49%
07:00 +26°C° 0 mm 4 mps 743 mmHg 46%
08:00 +27°C° 0 mm 5 mps 743 mmHg 44%
09:00 +28°C° 0 mm 7 mps 743 mmHg 41%
10:00 +28°C° 0 mm 6 mps 743 mmHg 41%
11:00 +28°C° 0 mm 6 mps 743 mmHg 41%
12:00 +28°C° 0 mm 6 mps 744 mmHg 42%
13:00 +28°C° 0.1 mm 6 mps 743 mmHg 40%
14:00 +29°C° 0.1 mm 7 mps 743 mmHg 38%
15:00 +29°C° 0.1 mm 7 mps 743 mmHg 36%
16:00 +28°C° 0 mm 7 mps 744 mmHg 38%
17:00 +27°C° 0 mm 6 mps 744 mmHg 40%
18:00 +24°C° 0 mm 6 mps 744 mmHg 42%
19:00 +23°C° 0.4 mm 5 mps 744 mmHg 52%
20:00 +21°C° 0.4 mm 5 mps 744 mmHg 63%
21:00 +19°C° 0.4 mm 4 mps 745 mmHg 74%
22:00 +19°C° 0.5 mm 4 mps 745 mmHg 77%
23:00 +19°C° 0.5 mm 5 mps 745 mmHg 80%

28 July, Wednesday

Time Temperature Precipitation Wind Pressure Humidity
00:00 +17°C° 0.5 mm 5 mps 745 mmHg 83%
01:00 +19°C° 0.1 mm 4 mps 744 mmHg 80%
02:00 +19°C° 0.1 mm 3 mps 744 mmHg 78%
03:00 +19°C° 0.1 mm 2 mps 744 mmHg 75%
04:00 +19°C° 0 mm 2 mps 744 mmHg 73%
05:00 +19°C° 0 mm 2 mps 745 mmHg 71%
06:00 +19°C° 0 mm 2 mps 745 mmHg 69%
07:00 +21°C° 0 mm 3 mps 745 mmHg 62%
08:00 +22°C° 0 mm 3 mps 745 mmHg 54%
09:00 +25°C° 0 mm 4 mps 745 mmHg 46%
10:00 +26°C° 0 mm 4 mps 745 mmHg 43%
11:00 +27°C° 0 mm 4 mps 745 mmHg 39%
12:00 +28°C° 0 mm 3 mps 744 mmHg 35%
13:00 +29°C° 0 mm 3 mps 744 mmHg 34%
14:00 +29°C° 0 mm 3 mps 744 mmHg 32%
15:00 +30°C° 0 mm 3 mps 744 mmHg 30%
16:00 +30°C° 0 mm 3 mps 743 mmHg 31%
17:00 +29°C° 0 mm 4 mps 743 mmHg 33%
18:00 +29°C° 0 mm 4 mps 743 mmHg 34%
19:00 +27°C° 0 mm 4 mps 743 mmHg 39%
20:00 +25°C° 0 mm 4 mps 743 mmHg 43%
21:00 +22°C° 0 mm 3 mps 744 mmHg 48%
22:00 +21°C° 0 mm 3 mps 743 mmHg 51%
23:00 +21°C° 0 mm 2 mps 743 mmHg 54%
Show more